sat.trackr.live / text

‹ back to catalog

ONEWEB-0339

NORAD 49205 · 2021-083V

PAYLOAD ACTIVE UNKNOWN

§ Identity

Operator
Country
UK
Launch date
2021-09-14
Launch site
TYMSC
Launch vehicle
Mass (kg)
RCS (m²)

Purposes: comms

External: N2YO · Heavens-Above · Gunter

§ Orbital elements

Epoch: 2026-05-25T04:41:28.262400Z

Period
109.63 min
Inclination
87.8940°
Eccentricity
0.0001514
Mean motion
13.13468276 rev/d
Perigee alt
1,208.6 km
Apogee alt
1,210.9 km
Semi-major
7,587.9 km
B*
2.9142e-4
RAAN
324.8075°
Arg perigee
88.1762°
Mean anomaly
271.9540°
Rev number
22,787

§ Raw data

ONEWEB-03391 49205U 21083V   26145.19546600  .00000119  00000+0  29142-3 0  99942 49205  87.8940 324.8075 0001514  88.1762 271.9540 13.13468276227875

JSON: /api/v1/satellites/49205 · /tle

For live sub-satellite position, see the globe view (requires WebGL).

§ Visibility from observer

Set your observer location to see the next 7 days of passes ≥ 10°. The values pass through the URL so the page stays shareable.

No JS? Fill the form by hand. The geolocation button needs JavaScript.